Time,TemperatureF,DewpointF,PressureIn,WindDirection,WindDirectionDegrees,WindSpeedMPH,WindSpeedGustMPH,Humidity,HourlyPrecipIn,Conditions,Clouds,dailyrainin,SoftwareType,DateUTC
2013-03-31 00:02:00,34.0,12.2,23.54,WNW,288,0.0,0.0,40,0.00,,---,0.00,VWS V14.00,2013-03-31 07:02:00,
2013-03-31 00:07:00,33.8,12.1,23.54,WNW,288,0.0,0.0,40,0.00,,---,0.00,VWS V14.00,2013-03-31 07:07:00,
2013-03-31 00:12:00,33.8,12.1,23.54,WNW,288,0.0,0.0,40,0.00,,---,0.00,VWS V14.00,2013-03-31 07:12:00,
2013-03-31 00:17:00,33.6,12.4,23.54,WNW,288,0.0,0.0,41,0.00,,---,0.00,VWS V14.00,2013-03-31 07:17:00,
2013-03-31 00:22:00,33.4,12.3,23.54,WNW,288,0.0,0.0,41,0.00,,---,0.00,VWS V14.00,2013-03-31 07:22:00,
2013-03-31 00:27:00,33.3,12.1,23.54,WNW,288,0.0,0.0,41,0.00,,---,0.00,VWS V14.00,2013-03-31 07:27:00,
2013-03-31 00:33:00,33.1,12.0,23.54,WNW,288,0.0,0.0,41,0.00,,---,0.00,VWS V14.00,2013-03-31 07:33:00,
2013-03-31 00:38:00,32.9,11.8,23.54,WNW,288,0.0,0.0,41,0.00,,---,0.00,VWS V14.00,2013-03-31 07:38:00,
2013-03-31 00:43:00,32.7,11.6,23.54,WNW,288,0.0,0.0,41,0.00,,---,0.00,VWS V14.00,2013-03-31 07:43:00,
2013-03-31 00:48:00,32.5,11.5,23.54,WNW,288,0.0,0.0,41,0.00,,---,0.00,VWS V14.00,2013-03-31 07:48:00,
2013-03-31 00:53:00,32.5,11.5,23.54,WNW,288,0.0,0.0,41,0.00,,---,0.00,VWS V14.00,2013-03-31 07:53:00,
2013-03-31 00:58:00,32.4,11.3,23.54,WNW,288,0.0,0.0,41,0.00,,---,0.00,VWS V14.00,2013-03-31 07:58:00,
2013-03-31 01:03:00,32.2,11.1,23.54,WNW,288,0.0,0.0,41,0.00,,---,0.00,VWS V14.00,2013-03-31 08:03:00,
2013-03-31 01:09:00,32.2,11.1,23.54,WNW,288,0.0,0.0,41,0.00,,---,0.00,VWS V14.00,2013-03-31 08:09:00,
2013-03-31 01:14:00,31.8,10.8,23.54,WNW,288,0.0,0.0,41,0.00,,---,0.00,VWS V14.00,2013-03-31 08:14:00,
2013-03-31 01:19:00,31.8,10.8,23.54,WNW,288,0.0,0.0,41,0.00,,---,0.00,VWS V14.00,2013-03-31 08:19:00,
2013-03-31 01:24:00,31.6,10.6,23.54,WNW,288,0.0,0.0,41,0.00,,---,0.00,VWS V14.00,2013-03-31 08:24:00,
2013-03-31 01:29:00,31.6,10.6,23.54,WNW,288,0.0,0.0,41,0.00,,---,0.00,VWS V14.00,2013-03-31 08:29:00,
2013-03-31 01:34:00,31.5,10.5,23.54,WNW,288,0.0,0.0,41,0.00,,---,0.00,VWS V14.00,2013-03-31 08:34:00,
2013-03-31 01:39:00,31.3,10.3,23.54,WNW,288,0.0,0.0,41,0.00,,---,0.00,VWS V14.00,2013-03-31 08:39:00,
2013-03-31 01:44:00,31.1,10.2,23.51,WNW,288,0.0,0.0,41,0.00,,---,0.00,VWS V14.00,2013-03-31 08:44:00,
2013-03-31 01:49:00,31.3,10.3,23.51,WNW,288,0.0,0.0,41,0.00,,---,0.00,VWS V14.00,2013-03-31 08:49:00,
2013-03-31 01:55:00,31.1,10.2,23.51,WNW,288,0.0,0.0,41,0.00,,---,0.00,VWS V14.00,2013-03-31 08:55:00,
2013-03-31 02:00:00,31.1,10.2,23.51,WNW,288,0.0,0.0,41,0.00,,---,0.00,VWS V14.00,2013-03-31 09:00:00,
2013-03-31 02:05:00,30.9,10.0,23.51,WNW,288,0.0,0.0,41,0.00,,---,0.00,VWS V14.00,2013-03-31 09:05:00,
2013-03-31 02:10:00,30.9,10.0,23.51,WNW,288,0.0,0.0,41,0.00,,---,0.00,VWS V14.00,2013-03-31 09:10:00,
2013-03-31 02:15:00,30.7,9.8,23.51,WNW,288,0.0,0.0,41,0.00,,---,0.00,VWS V14.00,2013-03-31 09:15:00,
2013-03-31 02:20:00,30.6,9.7,23.51,WNW,288,0.0,0.0,41,0.00,,---,0.00,VWS V14.00,2013-03-31 09:20:00,
2013-03-31 02:25:00,30.6,9.7,23.51,WNW,288,0.0,0.0,41,0.00,,---,0.00,VWS V14.00,2013-03-31 09:25:00,
2013-03-31 02:31:00,30.4,9.5,23.51,WNW,288,0.0,0.0,41,0.00,,---,0.00,VWS V14.00,2013-03-31 09:31:00,
2013-03-31 02:36:00,30.4,9.5,23.51,WNW,288,0.0,0.0,41,0.00,,---,0.00,VWS V14.00,2013-03-31 09:36:00,
2013-03-31 02:42:00,30.4,9.5,23.51,WNW,288,0.0,0.0,41,0.00,,---,0.00,VWS V14.00,2013-03-31 09:42:00,
2013-03-31 02:47:00,30.4,9.5,23.51,WNW,288,0.0,0.0,41,0.00,,---,0.00,VWS V14.00,2013-03-31 09:47:00,
2013-03-31 02:52:00,30.2,9.4,23.51,WNW,288,0.0,0.0,41,0.00,,---,0.00,VWS V14.00,2013-03-31 09:52:00,
2013-03-31 02:57:00,30.2,9.4,23.51,WNW,288,0.0,0.0,41,0.00,,---,0.00,VWS V14.00,2013-03-31 09:57:00,
2013-03-31 03:02:00,30.0,9.2,23.51,WNW,288,0.0,0.0,41,0.00,,---,0.00,VWS V14.00,2013-03-31 10:02:00,
2013-03-31 03:07:00,30.0,9.2,23.51,WNW,288,0.0,0.0,41,0.00,,---,0.00,VWS V14.00,2013-03-31 10:07:00,
2013-03-31 03:13:00,29.8,9.0,23.51,WNW,288,0.0,0.0,41,0.00,,---,0.00,VWS V14.00,2013-03-31 10:13:00,
2013-03-31 03:18:00,29.7,8.9,23.51,WNW,288,0.0,0.0,41,0.00,,---,0.00,VWS V14.00,2013-03-31 10:18:00,
2013-03-31 03:23:00,29.7,8.9,23.51,WNW,288,0.0,0.0,41,0.00,,---,0.00,VWS V14.00,2013-03-31 10:23:00,
2013-03-31 03:28:00,29.5,8.7,23.51,WNW,288,0.0,0.0,41,0.00,,---,0.00,VWS V14.00,2013-03-31 10:28:00,
2013-03-31 03:33:00,29.5,8.7,23.51,WNW,288,0.0,0.0,41,0.00,,---,0.00,VWS V14.00,2013-03-31 10:33:00,
2013-03-31 03:39:00,29.3,8.5,23.51,WNW,288,0.0,0.0,41,0.00,,---,0.00,VWS V14.00,2013-03-31 10:39:00,
2013-03-31 03:44:00,29.3,8.5,23.51,WNW,288,0.0,0.0,41,0.00,,---,0.00,VWS V14.00,2013-03-31 10:44:00,
2013-03-31 03:49:00,29.3,8.5,23.51,WNW,288,0.0,0.0,41,0.00,,---,0.00,VWS V14.00,2013-03-31 10:49:00,
2013-03-31 03:54:00,29.3,8.5,23.51,WNW,288,0.0,0.0,41,0.00,,---,0.00,VWS V14.00,2013-03-31 10:54:00,
2013-03-31 03:59:00,29.1,8.4,23.51,WNW,288,0.0,0.0,41,0.00,,---,0.00,VWS V14.00,2013-03-31 10:59:00,
2013-03-31 04:04:00,29.1,8.4,23.51,WNW,288,0.0,0.0,41,0.00,,---,0.00,VWS V14.00,2013-03-31 11:04:00,
2013-03-31 04:09:00,28.9,8.2,23.51,WNW,288,0.0,0.0,41,0.00,,---,0.00,VWS V14.00,2013-03-31 11:09:00,
2013-03-31 04:14:00,28.9,8.2,23.51,WNW,288,0.0,0.0,41,0.00,,---,0.00,VWS V14.00,2013-03-31 11:14:00,
2013-03-31 04:20:00,28.8,8.0,23.51,WNW,288,0.0,0.0,41,0.00,,---,0.00,VWS V14.00,2013-03-31 11:20:00,
2013-03-31 04:25:00,28.6,7.9,23.51,WNW,288,0.0,0.0,41,0.00,,---,0.00,VWS V14.00,2013-03-31 11:25:00,
2013-03-31 04:30:00,28.6,7.9,23.51,WNW,288,0.0,0.0,41,0.00,,---,0.00,VWS V14.00,2013-03-31 11:30:00,
2013-03-31 04:35:00,28.6,7.9,23.51,WNW,288,0.0,0.0,41,0.00,,---,0.00,VWS V14.00,2013-03-31 11:35:00,
2013-03-31 04:41:00,28.6,7.9,23.51,WNW,288,0.0,0.0,41,0.00,,---,0.00,VWS V14.00,2013-03-31 11:41:00,
2013-03-31 04:46:00,28.6,7.9,23.51,WNW,288,0.0,0.0,41,0.00,,---,0.00,VWS V14.00,2013-03-31 11:46:00,
2013-03-31 04:51:00,28.6,7.9,23.51,WNW,288,0.0,0.0,41,0.00,,---,0.00,VWS V14.00,2013-03-31 11:51:00,
2013-03-31 04:56:00,28.4,8.2,23.51,WNW,288,0.0,0.0,42,0.00,,---,0.00,VWS V14.00,2013-03-31 11:56:00,
2013-03-31 05:01:00,28.4,8.2,23.51,WNW,288,0.0,0.0,42,0.00,,---,0.00,VWS V14.00,2013-03-31 12:01:00,
2013-03-31 05:07:00,28.2,8.1,23.51,WNW,288,0.0,0.0,42,0.00,,---,0.00,VWS V14.00,2013-03-31 12:07:00,
2013-03-31 05:12:00,28.2,8.1,23.51,WNW,288,0.0,0.0,42,0.00,,---,0.00,VWS V14.00,2013-03-31 12:12:00,
2013-03-31 05:17:00,28.2,8.1,23.51,WNW,288,0.0,0.0,42,0.00,,---,0.00,VWS V14.00,2013-03-31 12:17:00,
2013-03-31 05:22:00,28.0,7.9,23.51,WNW,288,0.0,0.0,42,0.00,,---,0.00,VWS V14.00,2013-03-31 12:22:00,
2013-03-31 05:27:00,28.0,7.9,23.51,WNW,288,0.0,0.0,42,0.00,,---,0.00,VWS V14.00,2013-03-31 12:27:00,
2013-03-31 05:33:00,28.0,7.9,23.51,WNW,288,0.0,0.0,42,0.00,,---,0.00,VWS V14.00,2013-03-31 12:33:00,
2013-03-31 05:38:00,27.9,7.8,23.51,WNW,288,0.0,0.0,42,0.00,,---,0.00,VWS V14.00,2013-03-31 12:38:00,
2013-03-31 05:43:00,27.9,7.8,23.51,WNW,288,0.0,0.0,42,0.00,,---,0.00,VWS V14.00,2013-03-31 12:43:00,
2013-03-31 05:48:00,27.9,7.8,23.51,WNW,288,0.0,0.0,42,0.00,,---,0.00,VWS V14.00,2013-03-31 12:48:00,
2013-03-31 05:53:00,27.9,7.8,23.51,WNW,288,0.0,0.0,42,0.00,,---,0.00,VWS V14.00,2013-03-31 12:53:00,
2013-03-31 05:58:00,27.7,7.6,23.51,WNW,288,0.0,0.0,42,0.00,,---,0.00,VWS V14.00,2013-03-31 12:58:00,
2013-03-31 06:03:00,27.7,7.6,23.51,WNW,288,0.0,0.0,42,0.00,,---,0.00,VWS V14.00,2013-03-31 13:03:00,
2013-03-31 06:09:00,27.5,7.4,23.51,WNW,288,0.0,0.0,42,0.00,,---,0.00,VWS V14.00,2013-03-31 13:09:00,
2013-03-31 06:14:00,27.5,7.4,23.51,WNW,288,0.0,0.0,42,0.00,,---,0.00,VWS V14.00,2013-03-31 13:14:00,
2013-03-31 06:19:00,27.5,7.4,23.51,WNW,288,0.0,0.0,42,0.00,,---,0.00,VWS V14.00,2013-03-31 13:19:00,
2013-03-31 06:24:00,27.5,7.4,23.51,WNW,288,0.0,0.0,42,0.00,,---,0.00,VWS V14.00,2013-03-31 13:24:00,
2013-03-31 06:30:00,27.5,7.4,23.51,WNW,288,0.0,0.0,42,0.00,,---,0.00,VWS V14.00,2013-03-31 13:30:00,
2013-03-31 06:35:00,27.5,7.4,23.51,WNW,288,0.0,0.0,42,0.00,,---,0.00,VWS V14.00,2013-03-31 13:35:00,
2013-03-31 06:40:00,27.5,7.4,23.51,WNW,288,0.0,0.0,42,0.00,,---,0.00,VWS V14.00,2013-03-31 13:40:00,
2013-03-31 06:45:00,27.7,7.6,23.51,WNW,288,0.0,0.0,42,0.00,,---,0.00,VWS V14.00,2013-03-31 13:45:00,
2013-03-31 06:51:00,27.9,7.8,23.51,WNW,288,0.0,0.0,42,0.00,,---,0.00,VWS V14.00,2013-03-31 13:51:00,
2013-03-31 06:56:00,28.0,7.9,23.51,WNW,288,0.0,0.0,42,0.00,,---,0.00,VWS V14.00,2013-03-31 13:56:00,
2013-03-31 07:01:00,28.2,8.1,23.54,WNW,288,0.0,0.0,42,0.00,,---,0.00,VWS V14.00,2013-03-31 14:01:00,
2013-03-31 07:06:00,28.6,7.9,23.54,WNW,288,0.0,0.0,41,0.00,,---,0.00,VWS V14.00,2013-03-31 14:06:00,
2013-03-31 07:11:00,28.9,8.2,23.54,WNW,288,0.0,0.0,41,0.00,,---,0.00,VWS V14.00,2013-03-31 14:11:00,
2013-03-31 07:16:00,29.5,8.7,23.54,WNW,288,0.0,0.0,41,0.00,,---,0.00,VWS V14.00,2013-03-31 14:16:00,
2013-03-31 07:22:00,30.0,9.2,23.54,WNW,288,0.0,0.0,41,0.00,,---,0.00,VWS V14.00,2013-03-31 14:22:00,
2013-03-31 07:27:00,30.6,9.7,23.54,WNW,288,0.0,0.0,41,0.00,,---,0.00,VWS V14.00,2013-03-31 14:27:00,
2013-03-31 07:33:00,31.8,10.8,23.54,WNW,288,0.0,0.0,41,0.00,,---,0.00,VWS V14.00,2013-03-31 14:33:00,
2013-03-31 07:39:00,32.9,11.8,23.54,WNW,288,0.0,0.0,41,0.00,,---,0.00,VWS V14.00,2013-03-31 14:39:00,
2013-03-31 07:44:00,33.8,12.6,23.54,WNW,288,0.0,0.0,41,0.00,,---,0.00,VWS V14.00,2013-03-31 14:44:00,
2013-03-31 07:49:00,35.1,13.8,23.54,WNW,288,0.0,0.0,41,0.00,,---,0.00,VWS V14.00,2013-03-31 14:49:00,
2013-03-31 07:54:00,36.1,14.2,23.54,WNW,288,0.0,0.0,40,0.00,,---,0.00,VWS V14.00,2013-03-31 14:54:00,
2013-03-31 07:59:00,37.6,15.5,23.54,WNW,288,0.0,0.0,40,0.00,,---,0.00,VWS V14.00,2013-03-31 14:59:00,
2013-03-31 08:04:00,39.0,16.8,23.54,WNW,288,0.0,0.0,40,0.00,,---,0.00,VWS V14.00,2013-03-31 15:04:00,
2013-03-31 08:10:00,41.0,18.0,23.54,WNW,288,0.0,0.0,39,0.00,,---,0.00,VWS V14.00,2013-03-31 15:10:00,
2013-03-31 08:15:00,42.6,19.4,23.54,WNW,288,0.0,0.0,39,0.00,,---,0.00,VWS V14.00,2013-03-31 15:15:00,
2013-03-31 08:20:00,44.4,20.4,23.54,WNW,288,0.0,0.0,38,0.00,,---,0.00,VWS V14.00,2013-03-31 15:20:00,
2013-03-31 08:25:00,46.2,22.0,23.54,WNW,288,0.0,0.0,38,0.00,,---,0.00,VWS V14.00,2013-03-31 15:25:00,
2013-03-31 08:30:00,47.8,22.9,23.51,SW,223,0.0,0.0,37,0.00,,---,0.00,VWS V14.00,2013-03-31 15:30:00,
2013-03-31 08:35:00,49.5,24.3,23.51,WSW,241,3.1,3.6,37,0.00,,---,0.00,VWS V14.00,2013-03-31 15:35:00,
2013-03-31 08:40:00,50.9,25.6,23.51,West,269,2.7,2.7,37,0.00,,---,0.00,VWS V14.00,2013-03-31 15:40:00,
2013-03-31 08:45:00,52.0,25.9,23.54,West,270,2.7,3.6,36,0.00,,---,0.00,VWS V14.00,2013-03-31 15:45:00,
2013-03-31 08:51:00,53.1,26.8,23.54,SW,234,0.0,0.0,36,0.00,,---,0.00,VWS V14.00,2013-03-31 15:51:00,
2013-03-31 08:56:00,54.0,27.6,23.54,NW,315,0.0,4.0,36,0.00,,---,0.00,VWS V14.00,2013-03-31 15:56:00,
2013-03-31 09:01:00,54.9,28.4,23.54,North,353,3.6,4.0,36,0.00,,---,0.00,VWS V14.00,2013-03-31 16:01:00,
2013-03-31 09:06:00,55.6,28.4,23.54,SW,218,4.9,5.4,35,0.00,,---,0.00,VWS V14.00,2013-03-31 16:06:00,
2013-03-31 09:11:00,56.3,29.0,23.54,WNW,285,2.7,3.1,35,0.00,,---,0.00,VWS V14.00,2013-03-31 16:11:00,
2013-03-31 09:16:00,56.7,29.3,23.54,WSW,250,2.7,4.0,35,0.00,,---,0.00,VWS V14.00,2013-03-31 16:16:00,
2013-03-31 09:22:00,57.2,29.8,23.54,WNW,302,0.0,2.7,35,0.00,,---,0.00,VWS V14.00,2013-03-31 16:22:00,
2013-03-31 09:27:00,57.6,30.1,23.54,NNW,328,3.6,4.9,35,0.00,,---,0.00,VWS V14.00,2013-03-31 16:27:00,
2013-03-31 09:32:00,57.7,30.3,23.54,WNW,290,2.7,5.4,35,0.00,,---,0.00,VWS V14.00,2013-03-31 16:32:00,
2013-03-31 09:37:00,57.9,30.5,23.54,WSW,254,2.7,2.7,35,0.00,,---,0.00,VWS V14.00,2013-03-31 16:37:00,
2013-03-31 09:43:00,57.9,30.5,23.54,NW,326,4.0,8.1,35,0.00,,---,0.00,VWS V14.00,2013-03-31 16:43:00,
2013-03-31 09:48:00,57.7,30.3,23.54,North,353,3.6,5.4,35,0.00,,---,0.00,VWS V14.00,2013-03-31 16:48:00,
2013-03-31 09:53:00,57.7,30.3,23.54,NNW,342,4.0,5.4,35,0.00,,---,0.00,VWS V14.00,2013-03-31 16:53:00,
2013-03-31 09:58:00,57.7,30.3,23.54,SSE,152,2.7,3.6,35,0.00,,---,0.00,VWS V14.00,2013-03-31 16:58:00,
2013-03-31 10:03:00,58.1,30.6,23.54,SSE,150,0.0,2.7,35,0.00,,---,0.00,VWS V14.00,2013-03-31 17:03:00,
2013-03-31 10:08:00,58.5,30.9,23.54,SW,232,0.0,4.0,35,0.00,,---,0.00,VWS V14.00,2013-03-31 17:08:00,
2013-03-31 10:13:00,59.4,31.7,23.54,SW,222,3.6,3.6,35,0.00,,---,0.00,VWS V14.00,2013-03-31 17:13:00,
2013-03-31 10:18:00,60.6,32.8,23.54,SW,224,4.9,7.6,35,0.00,,---,0.00,VWS V14.00,2013-03-31 17:18:00,
2013-03-31 10:24:00,61.3,32.8,23.54,SSW,200,4.0,6.3,34,0.00,,---,0.00,VWS V14.00,2013-03-31 17:24:00,
2013-03-31 10:29:00,61.9,33.2,23.54,West,275,5.4,7.2,34,0.00,,---,0.00,VWS V14.00,2013-03-31 17:29:00,
2013-03-31 10:34:00,63.0,34.2,23.54,NW,308,5.8,5.8,34,0.00,,---,0.00,VWS V14.00,2013-03-31 17:34:00,
2013-03-31 10:39:00,62.2,33.5,23.54,West,272,3.6,3.6,34,0.00,,---,0.00,VWS V14.00,2013-03-31 17:39:00,
2013-03-31 10:44:00,61.3,32.8,23.54,South,187,2.7,3.6,34,0.00,,---,0.00,VWS V14.00,2013-03-31 17:44:00,
2013-03-31 10:50:00,61.3,32.8,23.54,NW,308,4.0,8.1,34,0.00,,---,0.00,VWS V14.00,2013-03-31 17:50:00,
2013-03-31 10:55:00,61.7,33.1,23.54,SW,225,3.1,6.3,34,0.00,,---,0.00,VWS V14.00,2013-03-31 17:55:00,
2013-03-31 11:00:00,61.9,33.2,23.54,West,278,4.0,6.3,34,0.00,,---,0.00,VWS V14.00,2013-03-31 18:00:00,
2013-03-31 11:06:00,63.5,34.7,23.54,SW,218,6.3,8.1,34,0.00,,---,0.00,VWS V14.00,2013-03-31 18:06:00,
2013-03-31 11:11:00,64.8,35.0,23.54,SSW,195,4.0,4.0,33,0.00,,---,0.00,VWS V14.00,2013-03-31 18:11:00,
2013-03-31 11:16:00,66.4,36.4,23.54,South,178,5.4,5.8,33,0.00,,---,0.00,VWS V14.00,2013-03-31 18:16:00,
2013-03-31 11:21:00,67.6,37.5,23.54,East,94,2.7,2.7,33,0.00,,---,0.00,VWS V14.00,2013-03-31 18:21:00,
2013-03-31 11:27:00,68.2,38.0,23.54,South,186,3.1,4.9,33,0.00,,---,0.00,VWS V14.00,2013-03-31 18:27:00,
2013-03-31 11:32:00,69.3,39.0,23.54,SE,142,7.6,7.6,33,0.00,,---,0.00,VWS V14.00,2013-03-31 18:32:00,
2013-03-31 11:37:00,70.0,38.8,23.54,SSW,192,3.1,3.6,32,0.00,,---,0.00,VWS V14.00,2013-03-31 18:37:00,
2013-03-31 11:42:00,70.5,39.3,23.54,SW,225,2.2,5.8,32,0.00,,---,0.00,VWS V14.00,2013-03-31 18:42:00,
2013-03-31 11:48:00,70.0,38.8,23.54,South,189,4.0,8.7,32,0.00,,---,0.00,VWS V14.00,2013-03-31 18:48:00,
2013-03-31 11:53:00,69.8,38.6,23.54,WSW,249,4.0,5.8,32,0.00,,---,0.00,VWS V14.00,2013-03-31 18:53:00,
2013-03-31 11:58:00,70.3,39.1,23.51,WSW,249,7.2,7.2,32,0.00,,---,0.00,VWS V14.00,2013-03-31 18:58:00,
2013-03-31 12:03:00,70.9,39.6,23.51,SSE,163,7.6,7.6,32,0.00,,---,0.00,VWS V14.00,2013-03-31 19:03:00,
2013-03-31 12:09:00,71.1,39.7,23.51,SW,236,2.7,5.8,32,0.00,,---,0.00,VWS V14.00,2013-03-31 19:09:00,
2013-03-31 12:14:00,71.1,39.7,23.51,South,170,4.0,8.3,32,0.00,,---,0.00,VWS V14.00,2013-03-31 19:14:00,
2013-03-31 12:19:00,71.1,39.7,23.51,ESE,113,2.7,5.4,32,0.00,,---,0.00,VWS V14.00,2013-03-31 19:19:00,
2013-03-31 12:24:00,71.4,40.0,23.51,South,172,6.3,7.2,32,0.00,,---,0.00,VWS V14.00,2013-03-31 19:24:00,
2013-03-31 12:29:00,72.1,40.7,23.51,SSW,204,4.0,4.0,32,0.00,,---,0.00,VWS V14.00,2013-03-31 19:29:00,
2013-03-31 12:34:00,72.5,41.0,23.51,SSW,193,5.8,5.8,32,0.00,,---,0.00,VWS V14.00,2013-03-31 19:34:00,
2013-03-31 12:40:00,71.6,40.2,23.51,SSW,193,4.0,4.0,32,0.00,,---,0.00,VWS V14.00,2013-03-31 19:40:00,
2013-03-31 12:45:00,72.7,41.2,23.51,South,190,6.3,6.3,32,0.00,,---,0.00,VWS V14.00,2013-03-31 19:45:00,
2013-03-31 12:50:00,72.0,40.5,23.51,SW,216,4.0,6.3,32,0.00,,---,0.00,VWS V14.00,2013-03-31 19:50:00,
2013-03-31 12:55:00,70.5,39.3,23.51,WNW,289,5.8,7.6,32,0.00,,---,0.00,VWS V14.00,2013-03-31 19:55:00,
2013-03-31 13:00:00,69.1,38.8,23.51,SW,227,5.8,7.6,33,0.00,,---,0.00,VWS V14.00,2013-03-31 20:00:00,
2013-03-31 13:06:00,68.0,37.8,23.51,SW,221,4.9,4.9,33,0.00,,---,0.00,VWS V14.00,2013-03-31 20:06:00,
2013-03-31 13:12:00,67.1,37.1,23.51,WNW,297,3.1,5.4,33,0.00,,---,0.00,VWS V14.00,2013-03-31 20:12:00,
2013-03-31 13:17:00,66.7,36.8,23.51,SSW,204,4.0,4.0,33,0.00,,---,0.00,VWS V14.00,2013-03-31 20:17:00,
2013-03-31 13:22:00,67.1,37.1,23.51,SW,215,7.6,7.6,33,0.00,,---,0.00,VWS V14.00,2013-03-31 20:22:00,
2013-03-31 13:27:00,67.5,37.4,23.51,NW,304,3.6,4.0,33,0.00,,---,0.00,VWS V14.00,2013-03-31 20:27:00,
2013-03-31 13:32:00,67.3,37.2,23.51,WNW,283,7.6,7.6,33,0.35,,---,0.35,VWS V14.00,2013-03-31 20:32:00,
2013-03-31 13:37:00,66.6,36.6,23.51,SW,221,4.0,4.9,33,0.35,,---,0.35,VWS V14.00,2013-03-31 20:37:00,
2013-03-31 13:42:00,65.8,36.0,23.51,WSW,241,7.2,7.2,33,0.35,,---,0.35,VWS V14.00,2013-03-31 20:42:00,
2013-03-31 13:47:00,65.8,36.0,23.51,SSW,198,2.7,6.3,33,0.35,,---,0.35,VWS V14.00,2013-03-31 20:47:00,
2013-03-31 13:52:00,65.7,35.8,23.51,WSW,248,5.8,5.8,33,0.35,,---,0.35,VWS V14.00,2013-03-31 20:52:00,
2013-03-31 13:58:00,65.5,35.6,23.51,SW,230,5.8,7.6,33,0.35,,---,0.35,VWS V14.00,2013-03-31 20:58:00,
2013-03-31 14:03:00,66.0,36.1,23.51,SW,224,7.2,7.2,33,0.35,,---,0.35,VWS V14.00,2013-03-31 21:03:00,
2013-03-31 14:08:00,65.7,35.8,23.51,WSW,237,2.7,2.7,33,0.35,,---,0.35,VWS V14.00,2013-03-31 21:08:00,
2013-03-31 14:13:00,65.8,36.0,23.48,SSW,197,2.7,4.0,33,0.35,,---,0.35,VWS V14.00,2013-03-31 21:13:00,
2013-03-31 14:19:00,66.0,36.1,23.48,SW,235,3.6,5.8,33,0.35,,---,0.35,VWS V14.00,2013-03-31 21:19:00,
2013-03-31 14:24:00,65.8,36.0,23.48,SE,145,6.3,7.6,33,0.35,,---,0.35,VWS V14.00,2013-03-31 21:24:00,
2013-03-31 14:29:00,66.2,36.3,23.48,West,261,6.3,8.1,33,0.00,,---,0.35,VWS V14.00,2013-03-31 21:29:00,
2013-03-31 14:34:00,66.4,36.4,23.48,SSW,198,8.3,8.3,33,0.00,,---,0.35,VWS V14.00,2013-03-31 21:34:00,
2013-03-31 14:39:00,66.0,36.1,23.48,SSW,206,3.1,3.1,33,0.00,,---,0.35,VWS V14.00,2013-03-31 21:39:00,
2013-03-31 14:44:00,65.7,35.8,23.48,WSW,254,5.4,8.1,33,0.00,,---,0.35,VWS V14.00,2013-03-31 21:44:00,
2013-03-31 14:49:00,64.6,34.8,23.48,West,267,5.4,5.4,33,0.00,,---,0.35,VWS V14.00,2013-03-31 21:49:00,
2013-03-31 14:54:00,64.2,35.3,23.48,SW,225,6.3,6.7,34,0.00,,---,0.35,VWS V14.00,2013-03-31 21:54:00,
2013-03-31 14:59:00,65.1,35.3,23.48,West,265,8.3,10.1,33,0.00,,---,0.35,VWS V14.00,2013-03-31 21:59:00,
2013-03-31 15:05:00,65.7,35.8,23.48,SW,218,3.1,4.9,33,0.00,,---,0.35,VWS V14.00,2013-03-31 22:05:00,
2013-03-31 15:10:00,66.6,36.6,23.48,SSW,211,3.1,3.1,33,0.00,,---,0.35,VWS V14.00,2013-03-31 22:10:00,
2013-03-31 15:15:00,67.3,37.2,23.48,SW,228,5.4,5.4,33,0.00,,---,0.35,VWS V14.00,2013-03-31 22:15:00,
2013-03-31 15:20:00,67.3,37.2,23.48,SW,219,10.1,10.1,33,0.00,,---,0.35,VWS V14.00,2013-03-31 22:20:00,
2013-03-31 15:26:00,67.3,37.2,23.48,West,278,3.6,5.8,33,0.00,,---,0.35,VWS V14.00,2013-03-31 22:26:00,
2013-03-31 15:31:00,67.1,37.1,23.48,SSW,202,3.6,4.9,33,0.00,,---,0.35,VWS V14.00,2013-03-31 22:31:00,
2013-03-31 15:36:00,67.1,37.1,23.48,SSW,198,5.4,6.3,33,0.00,,---,0.35,VWS V14.00,2013-03-31 22:36:00,
2013-03-31 15:42:00,66.6,36.6,23.48,WSW,251,4.0,4.9,33,0.00,,---,0.35,VWS V14.00,2013-03-31 22:42:00,
2013-03-31 15:47:00,66.7,36.8,23.48,WSW,241,6.7,6.7,33,0.00,,---,0.35,VWS V14.00,2013-03-31 22:47:00,
2013-03-31 15:52:00,66.4,36.4,23.48,West,275,3.6,3.6,33,0.00,,---,0.35,VWS V14.00,2013-03-31 22:52:00,
2013-03-31 15:57:00,65.8,36.0,23.45,SW,227,0.0,3.6,33,0.00,,---,0.35,VWS V14.00,2013-03-31 22:57:00,
2013-03-31 16:03:00,66.0,36.1,23.45,SSW,200,3.1,3.1,33,0.00,,---,0.35,VWS V14.00,2013-03-31 23:03:00,
2013-03-31 16:08:00,66.4,36.4,23.45,SW,236,8.1,9.2,33,0.00,,---,0.35,VWS V14.00,2013-03-31 23:08:00,
2013-03-31 16:13:00,66.4,36.4,23.45,WSW,241,8.1,10.5,33,0.00,,---,0.35,VWS V14.00,2013-03-31 23:13:00,
2013-03-31 16:18:00,66.4,36.4,23.45,WNW,295,6.3,8.7,33,0.00,,---,0.35,VWS V14.00,2013-03-31 23:18:00,
2013-03-31 16:23:00,66.7,36.8,23.45,WSW,251,5.4,5.4,33,0.00,,---,0.35,VWS V14.00,2013-03-31 23:23:00,
2013-03-31 16:29:00,66.9,36.9,23.45,SSW,192,4.0,8.1,33,0.00,,---,0.35,VWS V14.00,2013-03-31 23:29:00,
2013-03-31 16:34:00,66.7,36.8,23.45,NNW,331,6.3,8.1,33,0.00,,---,0.35,VWS V14.00,2013-03-31 23:34:00,
2013-03-31 16:39:00,67.1,37.1,23.45,South,183,6.3,6.3,33,0.00,,---,0.35,VWS V14.00,2013-03-31 23:39:00,
2013-03-31 16:44:00,66.7,36.8,23.45,NW,304,3.6,8.3,33,0.00,,---,0.35,VWS V14.00,2013-03-31 23:44:00,
2013-03-31 16:49:00,66.6,36.6,23.45,WSW,250,7.6,7.6,33,0.00,,---,0.35,VWS V14.00,2013-03-31 23:49:00,
2013-03-31 16:55:00,66.2,36.3,23.45,SSE,165,2.7,6.3,33,0.00,,---,0.35,VWS V14.00,2013-03-31 23:55:00,
2013-03-31 17:00:00,66.0,36.1,23.45,SSW,205,2.2,7.6,33,0.00,,---,0.35,VWS V14.00,2013-04-01 00:00:00,
2013-03-31 17:05:00,66.0,36.1,23.45,SSW,207,2.7,4.0,33,0.00,,---,0.35,VWS V14.00,2013-04-01 00:05:00,
2013-03-31 17:10:00,64.9,35.2,23.45,SW,219,4.0,5.4,33,0.00,,---,0.35,VWS V14.00,2013-04-01 00:10:00,
2013-03-31 17:15:00,64.4,34.7,23.45,SSE,164,4.0,4.0,33,0.00,,---,0.35,VWS V14.00,2013-04-01 00:15:00,
2013-03-31 17:20:00,63.7,34.8,23.45,West,268,4.0,4.0,34,0.00,,---,0.35,VWS V14.00,2013-04-01 00:20:00,
2013-03-31 17:25:00,63.3,34.5,23.45,SW,216,2.7,5.4,34,0.00,,---,0.35,VWS V14.00,2013-04-01 00:25:00,
2013-03-31 17:30:00,63.0,34.2,23.45,WSW,248,3.1,7.6,34,0.00,,---,0.35,VWS V14.00,2013-04-01 00:30:00,
2013-03-31 17:36:00,62.6,33.9,23.45,South,186,6.3,6.3,34,0.00,,---,0.35,VWS V14.00,2013-04-01 00:36:00,
2013-03-31 17:41:00,62.4,33.7,23.45,WSW,250,3.6,5.4,34,0.00,,---,0.35,VWS V14.00,2013-04-01 00:41:00,
2013-03-31 17:46:00,62.6,33.9,23.45,SSW,195,7.2,7.2,34,0.00,,---,0.35,VWS V14.00,2013-04-01 00:46:00,
2013-03-31 17:51:00,62.2,33.5,23.45,WSW,246,3.6,4.0,34,0.00,,---,0.35,VWS V14.00,2013-04-01 00:51:00,
2013-03-31 17:56:00,61.9,33.2,23.45,SE,137,5.8,7.6,34,0.00,,---,0.35,VWS V14.00,2013-04-01 00:56:00,
2013-03-31 18:01:00,61.7,33.1,23.45,NW,321,5.8,5.8,34,0.00,,---,0.35,VWS V14.00,2013-04-01 01:01:00,
2013-03-31 18:06:00,61.2,32.6,23.45,SSW,195,7.6,7.6,34,0.00,,---,0.35,VWS V14.00,2013-04-01 01:06:00,
2013-03-31 18:11:00,60.6,32.8,23.45,SSW,210,3.1,5.4,35,0.00,,---,0.35,VWS V14.00,2013-04-01 01:11:00,
2013-03-31 18:16:00,60.1,32.4,23.45,SW,227,3.6,3.6,35,0.00,,---,0.35,VWS V14.00,2013-04-01 01:16:00,
2013-03-31 18:22:00,59.5,31.9,23.45,WSW,250,3.6,7.6,35,0.00,,---,0.35,VWS V14.00,2013-04-01 01:22:00,
2013-03-31 18:27:00,58.8,31.2,23.45,South,178,5.4,5.4,35,0.00,,---,0.35,VWS V14.00,2013-04-01 01:27:00,
2013-03-31 18:32:00,58.1,30.6,23.45,South,189,5.8,5.8,35,0.00,,---,0.35,VWS V14.00,2013-04-01 01:32:00,
2013-03-31 18:37:00,57.4,30.0,23.45,SSW,197,3.6,5.8,35,0.00,,---,0.35,VWS V14.00,2013-04-01 01:37:00,
2013-03-31 18:43:00,56.7,29.3,23.45,SW,218,2.2,3.1,35,0.00,,---,0.35,VWS V14.00,2013-04-01 01:43:00,
2013-03-31 18:48:00,55.9,28.7,23.45,West,266,0.0,2.7,35,0.00,,---,0.35,VWS V14.00,2013-04-01 01:48:00,
2013-03-31 18:53:00,55.4,28.2,23.45,SSW,204,0.0,2.7,35,0.00,,---,0.35,VWS V14.00,2013-04-01 01:53:00,
2013-03-31 18:58:00,54.7,28.3,23.45,SSW,200,0.0,2.7,36,0.00,,---,0.35,VWS V14.00,2013-04-01 01:58:00,
2013-03-31 19:04:00,54.1,27.8,23.45,South,184,2.7,3.1,36,0.00,,---,0.35,VWS V14.00,2013-04-01 02:04:00,
2013-03-31 19:09:00,53.6,27.3,23.45,WSW,252,2.2,4.0,36,0.00,,---,0.35,VWS V14.00,2013-04-01 02:09:00,
2013-03-31 19:14:00,53.2,27.0,23.45,SSW,205,2.7,2.7,36,0.00,,---,0.35,VWS V14.00,2013-04-01 02:14:00,
2013-03-31 19:19:00,52.9,26.7,23.45,SW,225,0.0,0.0,36,0.00,,---,0.35,VWS V14.00,2013-04-01 02:19:00,
2013-03-31 19:24:00,52.5,26.4,23.45,SSW,205,0.0,0.0,36,0.00,,---,0.35,VWS V14.00,2013-04-01 02:24:00,
2013-03-31 19:30:00,52.0,25.9,23.45,SSW,197,0.0,0.0,36,0.00,,---,0.35,VWS V14.00,2013-04-01 02:30:00,
2013-03-31 19:35:00,51.6,26.2,23.45,SW,228,0.0,0.0,37,0.00,,---,0.35,VWS V14.00,2013-04-01 02:35:00,
2013-03-31 19:40:00,51.4,26.0,23.45,SW,216,2.2,3.6,37,0.00,,---,0.35,VWS V14.00,2013-04-01 02:40:00,
2013-03-31 19:45:00,51.1,25.7,23.45,West,266,2.7,2.7,37,0.00,,---,0.35,VWS V14.00,2013-04-01 02:45:00,
2013-03-31 19:50:00,50.7,25.4,23.45,WSW,246,0.0,0.0,37,0.00,,---,0.35,VWS V14.00,2013-04-01 02:50:00,
2013-03-31 19:56:00,50.4,25.1,23.45,WNW,284,2.7,3.1,37,0.00,,---,0.35,VWS V14.00,2013-04-01 02:56:00,
2013-03-31 20:02:00,50.2,24.9,23.45,WNW,285,3.1,3.1,37,0.00,,---,0.35,VWS V14.00,2013-04-01 03:02:00,
2013-03-31 20:07:00,49.8,24.6,23.45,WSW,240,0.0,0.0,37,0.00,,---,0.35,VWS V14.00,2013-04-01 03:07:00,
2013-03-31 20:12:00,49.6,24.5,23.45,SSW,193,0.0,0.0,37,0.00,,---,0.35,VWS V14.00,2013-04-01 03:12:00,
2013-03-31 20:17:00,49.5,24.3,23.45,SSW,203,0.0,0.0,37,0.00,,---,0.35,VWS V14.00,2013-04-01 03:17:00,
2013-03-31 20:22:00,49.3,24.1,23.45,South,187,0.0,0.0,37,0.00,,---,0.35,VWS V14.00,2013-04-01 03:22:00,
2013-03-31 20:27:00,49.1,24.0,23.45,SSW,202,0.0,0.0,37,0.00,,---,0.35,VWS V14.00,2013-04-01 03:27:00,
2013-03-31 20:33:00,48.7,23.6,23.45,SSW,202,0.0,0.0,37,0.00,,---,0.35,VWS V14.00,2013-04-01 03:33:00,
2013-03-31 20:38:00,48.4,23.3,23.45,WSW,257,0.0,0.0,37,0.00,,---,0.35,VWS V14.00,2013-04-01 03:38:00,
2013-03-31 20:43:00,48.0,23.0,23.48,WSW,257,0.0,0.0,37,0.00,,---,0.35,VWS V14.00,2013-04-01 03:43:00,
2013-03-31 20:48:00,47.8,22.9,23.48,WSW,253,0.0,0.0,37,0.00,,---,0.35,VWS V14.00,2013-04-01 03:48:00,
2013-03-31 20:54:00,47.7,22.7,23.48,West,265,0.0,0.0,37,0.00,,---,0.35,VWS V14.00,2013-04-01 03:54:00,
2013-03-31 20:59:00,47.5,22.5,23.48,West,265,0.0,0.0,37,0.00,,---,0.35,VWS V14.00,2013-04-01 03:59:00,
2013-03-31 21:00:00,47.3,22.4,23.48,West,265,0.0,0.0,37,0.00,,---,0.35,VWS V14.00,2013-04-01 04:00:00,
2013-03-31 21:02:00,47.1,22.2,23.48,West,265,2.2,2.2,37,0.00,,---,0.35,VWS V14.00,2013-04-01 04:02:00,
2013-03-31 21:07:00,46.6,21.7,23.48,West,265,0.0,0.0,37,0.00,,---,0.35,VWS V14.00,2013-04-01 04:07:00,
2013-03-31 21:13:00,46.0,21.9,23.48,West,265,0.0,0.0,38,0.00,,---,0.35,VWS V14.00,2013-04-01 04:13:00,
2013-03-31 21:18:00,45.5,21.4,23.48,West,265,0.0,0.0,38,0.00,,---,0.35,VWS V14.00,2013-04-01 04:18:00,
2013-03-31 21:23:00,44.8,20.7,23.48,West,265,0.0,0.0,38,0.00,,---,0.35,VWS V14.00,2013-04-01 04:23:00,
2013-03-31 21:28:00,44.2,20.3,23.48,West,265,0.0,0.0,38,0.00,,---,0.35,VWS V14.00,2013-04-01 04:28:00,
2013-03-31 21:33:00,43.7,19.8,23.48,West,265,0.0,0.0,38,0.00,,---,0.35,VWS V14.00,2013-04-01 04:33:00,
2013-03-31 21:38:00,43.3,19.5,23.48,West,265,0.0,0.0,38,0.00,,---,0.35,VWS V14.00,2013-04-01 04:38:00,
2013-03-31 21:43:00,43.0,19.1,23.48,West,265,0.0,0.0,38,0.00,,---,0.35,VWS V14.00,2013-04-01 04:43:00,
2013-03-31 21:48:00,42.4,19.2,23.48,West,265,0.0,0.0,39,0.00,,---,0.35,VWS V14.00,2013-04-01 04:48:00,
2013-03-31 21:53:00,41.9,18.8,23.48,West,265,0.0,0.0,39,0.00,,---,0.35,VWS V14.00,2013-04-01 04:53:00,
2013-03-31 21:59:00,41.5,18.4,23.48,West,265,0.0,0.0,39,0.00,,---,0.35,VWS V14.00,2013-04-01 04:59:00,
2013-03-31 22:04:00,41.0,18.0,23.48,West,265,0.0,0.0,39,0.00,,---,0.35,VWS V14.00,2013-04-01 05:04:00,
2013-03-31 22:09:00,40.5,17.5,23.48,West,265,0.0,0.0,39,0.00,,---,0.35,VWS V14.00,2013-04-01 05:09:00,
2013-03-31 22:14:00,40.1,17.1,23.45,West,265,0.0,0.0,39,0.00,,---,0.35,VWS V14.00,2013-04-01 05:14:00,
2013-03-31 22:19:00,39.7,16.8,23.45,West,265,0.0,0.0,39,0.00,,---,0.35,VWS V14.00,2013-04-01 05:19:00,
2013-03-31 22:25:00,39.4,16.5,23.45,West,265,0.0,0.0,39,0.00,,---,0.35,VWS V14.00,2013-04-01 05:25:00,
2013-03-31 22:30:00,39.2,16.3,23.45,West,265,0.0,0.0,39,0.00,,---,0.35,VWS V14.00,2013-04-01 05:30:00,
2013-03-31 22:35:00,38.7,15.9,23.45,West,265,0.0,0.0,39,0.00,,---,0.35,VWS V14.00,2013-04-01 05:35:00,
2013-03-31 22:40:00,38.5,15.7,23.45,West,265,0.0,0.0,39,0.00,,---,0.35,VWS V14.00,2013-04-01 05:40:00,
2013-03-31 22:45:00,38.1,15.4,23.45,West,265,0.0,0.0,39,0.00,,---,0.35,VWS V14.00,2013-04-01 05:45:00,
2013-03-31 22:51:00,37.8,15.0,23.45,West,265,0.0,0.0,39,0.00,,---,0.35,VWS V14.00,2013-04-01 05:51:00,
2013-03-31 22:56:00,37.4,14.7,23.45,West,265,0.0,0.0,39,0.00,,---,0.35,VWS V14.00,2013-04-01 05:56:00,
2013-03-31 23:01:00,37.0,15.0,23.45,West,265,0.0,0.0,40,0.00,,---,0.35,VWS V14.00,2013-04-01 06:01:00,
2013-03-31 23:06:00,36.9,14.8,23.45,West,265,0.0,0.0,40,0.00,,---,0.35,VWS V14.00,2013-04-01 06:06:00,
2013-03-31 23:11:00,36.7,14.6,23.45,West,265,0.0,0.0,40,0.00,,---,0.35,VWS V14.00,2013-04-01 06:11:00,
2013-03-31 23:16:00,36.3,14.3,23.45,West,265,0.0,0.0,40,0.00,,---,0.35,VWS V14.00,2013-04-01 06:16:00,
2013-03-31 23:22:00,36.1,14.2,23.45,West,265,0.0,0.0,40,0.00,,---,0.35,VWS V14.00,2013-04-01 06:22:00,
2013-03-31 23:27:00,36.0,14.0,23.45,West,265,0.0,0.0,40,0.00,,---,0.35,VWS V14.00,2013-04-01 06:27:00,
2013-03-31 23:32:00,35.8,13.8,23.45,West,265,0.0,0.0,40,0.00,,---,0.35,VWS V14.00,2013-04-01 06:32:00,
2013-03-31 23:37:00,35.6,13.7,23.45,West,265,0.0,0.0,40,0.00,,---,0.35,VWS V14.00,2013-04-01 06:37:00,
2013-03-31 23:42:00,35.4,13.5,23.45,West,265,0.0,0.0,40,0.00,,---,0.35,VWS V14.00,2013-04-01 06:42:00,
2013-03-31 23:47:00,35.2,13.4,23.45,West,265,0.0,0.0,40,0.00,,---,0.35,VWS V14.00,2013-04-01 06:47:00,
2013-03-31 23:52:00,35.1,13.2,23.45,West,265,0.0,0.0,40,0.00,,---,0.35,VWS V14.00,2013-04-01 06:52:00,
2013-03-31 23:57:00,34.7,12.9,23.45,West,265,0.0,0.0,40,0.00,,---,0.35,VWS V14.00,2013-04-01 06:57:00,